Terminal Aerodrome Forecast
Issued by NWS

Home | Current Version | Previous Version | Text Only | Print | Product List | Glossary On
Versions: 1 2 3 4 5 6 7 8 9 10 11 12 13 14 15 16
000
FTUS45 KABQ 280800 AAA
TAFAEG
TAF AMD
KAEG 280855Z 2809/2906 02009KT P6SM FEW050 SCT090
      TEMPO 2809/2812 01015G22KT
     FM281700 15011KT P6SM SCT090 SCT150
     FM282200 15011KT P6SM VCTS SCT070CB BKN130
     FM290100 26008KT P6SM VCSH BKN100=

USA.gov is the U.S. government's official web portal to all federal, state and local government web resources and services.